Regional Weather Roundup
Issued by NWS

Home | Current Version | Previous Version | Text Only | Print | Product List | Glossary Off
Versions: 1 2 3 4 5 6 7 8 9 10 11 12 13 14 15 16 17 18 19 20 21 22 23 24 25 26 27 28 29 30 31 32 33 34 35 36 37 38 39 40 41 42 43 44 45 46 47 48 49 50

000
ASUS43 KIND 182109
RWRIN

WEATHER ROUNDUP FOR INDIANA
NATIONAL WEATHER SERVICE INDIANAPOLIS IN
500 PM EDT WED OCT 18 2017

NOTE: "FAIR" INDICATES FEW OR NO CLOUDS BELOW 12,000 FEET WITH NO
SIGNIFICANT WEATHER AND/OR OBSTRUCTIONS TO VISIBILITY.

* - STATION DOES NOT REPORT WEATHER SUCH AS PRECIPITATION OR FOG.

+ - STATION NOT QUALITY CONTROLLED BY THE NATIONAL WEATHER SERVICE.
    USE DATA WITH CAUTION...ESPECIALLY DEWPOINT AND RELATIVE
    HUMIDITY OBSERVATIONS.

INZ001>003-010>013-019-020-182200-
NORTHWEST INDIANA

CITY           SKY/WX    TMP DP  RH WIND       PRES   REMARKS
GARY /AIRPORT/ SUNNY     72  34  25 S7G25     30.08S
KNOX *+        SUNNY     70  37  30 S12G22    30.10F
LA PORTE +     SUNNY     68  38  33 SW15G21   30.10F
MICHIGAN CITY+ SUNNY     68  39  34 S15       30.09F
MONTICELLO +   SUNNY     69  38  31 S13       30.13S
RENSSELAER +   SUNNY     70  25  18 S13G20    30.11F
VALPARAISO     SUNNY     71  40  32 S15G23    30.10F

$$

LMZ046-743>745-182200-
SOUTHERN LAKE MICHIGAN

STATION/POSITION TIME  TEMP    WIND        PRES    WAVE
                       AIR SEA DIR/SP/G            HT
                 (UTC) (F)     (DEG/KT/KT) (MB)    (FT)
BURNS HARBOR     2040   68     200/ 17/ 22 1019.0S
MICHIGAN CITY    2040   68     170/ 16/ 21   N/A
5NW MICH CITY    2100   65 58  200/ 14/ 19   N/A     2

$$

INZ004-005-014>016-021>024-182200-
NORTH CENTRAL INDIANA

CITY           SKY/WX    TMP DP  RH WIND       PRES   REMARKS
ELKHART        SUNNY     68  36  30 S14G21    30.11F
GOSHEN         SUNNY     68  37  32 S14G25    30.12F
LOGANSPORT +   SUNNY     68  39  34 S12       30.14F
PERU/GRISSOM   SUNNY     69  42  37 S14       30.14F
SOUTH BEND     SUNNY     67  39  35 S14       30.10F
WARSAW +       SUNNY     68  39  34 SW7       30.13F

$$

INZ006>009-017-018-025>027-182200-
NORTHEAST INDIANA

CITY           SKY/WX    TMP DP  RH WIND       PRES   REMARKS
AUBURN +       SUNNY     70  36  28 S9G16     30.15F
FORT WAYNE     MOSUNNY   69  38  32 SW14      30.16F
HUNTINGTON +   SUNNY     68  37  31 S12       30.15F
KENDALLVILLE + SUNNY     68  39  34 S13G18    30.14F

$$

INZ028-029-035-036-043>045-051>053-182200-
WEST CENTRAL INDIANA

CITY           SKY/WX    TMP DP  RH WIND       PRES   REMARKS
CRAWFORDSVL +  SUNNY     66  43  42 S16G23    30.15
GREENCASTLE +  SUNNY     66  43  42 S8G17     30.17F
LAFAYETTE      SUNNY     68  42  38 S14       30.13F
TERRE HAUTE    SUNNY     69  44  40 S12       30.16F

$$

INZ030>032-037>040-046>048-054>057-064-065-182200-
CENTRAL INDIANA

CITY           SKY/WX    TMP DP  RH WIND       PRES   REMARKS
CP ATTERBURY + SUNNY     70  43  37 S9        30.19F
COLUMBUS       SUNNY     68  34  28 S16       30.20S
FRANKFORT +    MOSUNNY   72  43  35 SW9G17    30.16F
GREENWOOD *+   SUNNY     74  45  36 SW7       30.19F
INDIANAPOLIS   MOSUNNY   69  43  38 S12       30.17F
-EAGLE CREEK   SUNNY     69  41  36 S12       30.16F
KOKOMO +       SUNNY     69  42  37 S13G20    30.16F
MARION +       SUNNY     68  39  34 SW15G21   30.17F
MT COMFORT *+  SUNNY     70  48  46 S9        30.18F
SHELBYVILLE    SUNNY     70  41  34 S12       30.18F
ZIONSVILLE +   SUNNY     67  43  40 S12       30.17F

$$

INZ033-034-041-042-049-050-058-059-182200-
EAST CENTRAL INDIANA

CITY           SKY/WX    TMP DP  RH WIND       PRES   REMARKS
MUNCIE         SUNNY     71  37  28 SW12G17   30.17F
RICHMOND +     SUNNY     68  39  34 S12G17    30.21F

$$

INZ060-061-067>069-081>083-085>088-182200-
SOUTHWEST INDIANA

CITY           SKY/WX    TMP DP  RH WIND       PRES   REMARKS
EVANSVILLE     SUNNY     71  44  37 S9        30.19F
HUNTINGBURG +  SUNNY     70  46  42 S13       30.20F
WASHINGTON +   SUNNY     71  38  29 S10       30.18F

$$

INZ062-063-066-070>080-084-089>092-182200-
SOUTH CENTRAL AND SOUTHEAST INDIANA

CITY           SKY/WX    TMP DP  RH WIND       PRES   REMARKS
BEDFORD +      SUNNY     70  41  35 S6        30.19
BLOOMINGTON    SUNNY     69  42  37 S13       30.18F
MADISON *+     SUNNY     68  39  34 S6        30.24S
NORTH VERNON + SUNNY     66  45  45 S10       30.21F
SEYMOUR +      MOSUNNY   72  45  37 S8        30.21

$$





USA.gov is the U.S. government's official web portal to all federal, state and local government web resources and services.